GSAT0215 (GALILEO 19)

Last updated on Sun Apr 12 2026 00:02:39 GMT+0000 (Coordinated Universal Time)

1 43055U 17079A 26100.55867676 .00000003 00000+0 00000+0 0 9991 2 43055 55.0955 223.3663 0000935 270.7671 89.1998 1.70474760 51837
UTC large
Height (km)
Speed (km/s)
/
Latitude / Longitude
Inclination (degrees)
Orbital Period (minutes)
Azimuth
Elevation
Range (km)
Doppler Factor

Next 0 passes for location: London (51.5072 / 0.1276)

Sorry there are no passes over London.
GSAT0215 (GALILEO 19)